Tracking 30415 objects as of 15-May-2025
HD Live streaming from Space Station
objects crossing your sky now

O3BF04

Track O3BF04 now!
10-day predictions


NORAD ID: 56367
Int'l Code: 2023-059A
Perigee: 8,067.1 km
Apogee: 8,078.9 km
Inclination: 0.0 °
Period: 287.9 minutes
Semi major axis: 14443 km
RCS: Unknown
Launch date: April 28, 2023
Source: SOCIETE EUROPEENNE DES SATELLITES (SES)
Launch site: AIR FORCE EASTERN TEST RANGE (AFETR)
Your satellite tracking list
Your tracking list is empty




NASA's NSSDC Master Catalog

Two Line Element Set (TLE):
1 56367U 23059A   25134.39369705 -.00000017  00000-0  00000-0 0  9992
2 56367   0.0405 349.7835 0004103  61.5456 308.7104  5.00117180 38650
Source of the keplerian elements: AFSPC